TimeEDT,TemperatureF,Dew PointF,Humidity,Sea Level PressureIn,VisibilityMPH,Wind Direction,Wind SpeedMPH,Gust SpeedMPH,PrecipitationIn,Events,Conditions,WindDirDegrees,DateUTC
12:53 AM,41.0,33.1,73,30.35,10.0,Calm,Calm,-,N/A,,Clear,0,2013-05-01 04:53:00
1:53 AM,39.0,30.9,73,30.36,10.0,Calm,Calm,-,N/A,,Clear,0,2013-05-01 05:53:00
2:53 AM,37.9,30.0,73,30.37,10.0,Calm,Calm,-,N/A,,Clear,0,2013-05-01 06:53:00
3:53 AM,36.0,32.0,86,30.39,10.0,Calm,Calm,-,N/A,,Clear,0,2013-05-01 07:53:00
4:53 AM,35.1,30.9,85,30.39,10.0,Calm,Calm,-,N/A,,Clear,0,2013-05-01 08:53:00
5:53 AM,33.1,30.0,89,30.40,10.0,Calm,Calm,-,N/A,,Clear,0,2013-05-01 09:53:00
6:53 AM,35.1,33.1,92,30.42,10.0,Calm,Calm,-,N/A,,Clear,0,2013-05-01 10:53:00
7:53 AM,43.0,34.0,71,30.44,10.0,Calm,Calm,-,N/A,,Clear,0,2013-05-01 11:53:00
8:53 AM,51.1,35.1,54,30.44,10.0,Calm,Calm,-,0.00,Rain,Light Rain,0,2013-05-01 12:53:00
9:53 AM,60.1,30.0,32,30.44,10.0,Variable,3.5,-,0.00,Rain,Light Rain,0,2013-05-01 13:53:00
10:53 AM,63.0,28.9,28,30.43,10.0,Calm,Calm,-,0.00,,Clear,0,2013-05-01 14:53:00
11:53 AM,66.9,28.0,23,30.42,10.0,Calm,Calm,-,N/A,,Clear,0,2013-05-01 15:53:00
12:53 PM,68.0,27.0,21,30.41,10.0,Variable,4.6,-,N/A,,Clear,0,2013-05-01 16:53:00
1:53 PM,70.0,28.0,21,30.40,10.0,ENE,5.8,-,N/A,,Clear,70,2013-05-01 17:53:00
2:53 PM,70.0,32.0,25,30.39,10.0,SE,11.5,-,N/A,,Clear,140,2013-05-01 18:53:00
4:53 PM,68.0,26.1,21,30.40,10.0,SE,11.5,-,N/A,,Clear,130,2013-05-01 20:53:00
5:53 PM,68.0,37.0,32,30.41,10.0,SSE,6.9,-,N/A,,Clear,160,2013-05-01 21:53:00
6:53 PM,63.0,42.1,46,30.43,10.0,South,8.1,-,N/A,,Clear,170,2013-05-01 22:53:00
7:53 PM,59.0,41.0,51,30.45,10.0,South,3.5,-,N/A,,Clear,170,2013-05-01 23:53:00
8:53 PM,57.0,41.0,55,30.46,10.0,Calm,Calm,-,N/A,,Clear,0,2013-05-02 00:53:00
9:53 PM,52.0,41.0,66,30.48,10.0,Calm,Calm,-,0.00,,Clear,0,2013-05-02 01:53:00
10:53 PM,46.9,39.9,77,30.48,10.0,Calm,Calm,-,N/A,,Clear,0,2013-05-02 02:53:00
11:53 PM,45.0,39.0,80,30.48,10.0,Calm,Calm,-,N/A,,Clear,0,2013-05-02 03:53:00